Regional Weather Roundup
Issued by NWS

Home | Current Version | Previous Version | Text Only | Print | Product List | Glossary Off
Versions: 1 2 3 4 5 6 7 8 9 10 11 12 13 14 15 16 17 18 19 20 21 22 23 24 25 26 27 28 29 30 31 32 33 34 35 36 37 38 39 40 41 42 43 44 45 46 47 48 49 50

000
ASUS43 KDTX 230410
RWRMI
MICHIGAN HOURLY REGIONAL WEATHER ROUNDUP
NATIONAL WEATHER SERVICE DETROIT/PONTIAC MI
1100 PM EST SUN JAN 22 2017

NOTE: "FAIR" INDICATES FEW OR NO CLOUDS BELOW 12,000 FEET WITH NO
SIGNIFICANT WEATHER AND/OR OBSTRUCTION TO VISIBILITY.

MIZ047>049-052>055-059>063-066>070-074>076-081>083-230500-
SOUTHEAST LOWER MICHIGAN

CITY           SKY/WX    TMP DP  RH WIND       PRES   REMARKS
ADRIAN         FOG       45  45 100 E8        29.64S VSB 1/2
ALMA           FOG       39  38  99 CALM      29.69R VSB 1/2
ANN ARBOR      FOG       47  47 100 N3        29.64R VSB 1/4
BAD AXE        FOG       39  39 100 E3        29.68R VSB 1/2
CARO           CLOUDY    38  37  99 N3        29.66S FOG
DETROIT CITY   FOG       44  44 100 E7        29.65S VSB 1/4
DETROIT        FOG       46  46 100 E6        29.65S VSB 1/2
FLINT          CLOUDY    40  39  97 N3        29.66S FOG
GROSSE ILE     FOG       42  42  99 E9        29.63S VSB 3/4
HILLSDALE      FOG       45  45 100 NE3       29.62S VSB 3/4
HOWELL         FOG       41  40  97 CALM      29.65R VSB 1

CITY           SKY/WX    TMP DP  RH WIND       PRES   REMARKS
JACKSON        FOG       44  43  96 NE5       29.64R VSB 1/2
LAMBERTVILLE   CLOUDY    41  40  95 E8        29.63S FOG
LANSING        FOG       40  38  93 N5        29.67R VSB 3/4
LAPEER         FOG       41  41 100 CALM      29.66S VSB 1/4
MASON          FOG       40  40 100 N3        29.65F VSB 1
MONROE         FOG       42  42 100 NE3       29.63S VSB 3/4
MT. CLEMENS    FOG       41  41 100 E3        29.64R VSB 1/2
PONTIAC        FOG       44  42  93 NE5       29.64R VSB 1/4
PORT HOPE        N/A     38  38 100 SE13      29.67R WCI  30
PORT HURON     FOG       39  39 100 CALM      29.66F VSB 1/2
TRI CITIES     FOG       38  38 100 E3        29.68R VSB 1/4
MIDLAND        FOG       38  38  97 CALM      29.68R VSB 1/4
TROY           CLOUDY    45  44  95 E3        29.67R FOG
SAGINAW HB     FOG       36  34  93 N3        29.68R VSB 1
$$
MIZ043>046-050>051-056>058-064>065-071>073-077>080-230500-
SOUTHWEST LOWER MICHIGAN

CITY           SKY/WX    TMP DP  RH WIND       PRES   REMARKS
BATTLE CREEK   FOG       41  41 100 NE8       29.65S VSB 1
BENTON HARBOR  CLOUDY    42  40  92 CALM      29.66S FOG
BIG RAPIDS     CLOUDY    35  34  98 CALM      29.67R FOG
COLDWATER      FOG       43  43 100 NE3       29.63S VSB 1/2
FREMONT        MOCLDY    39  39 100 CALM      29.69R FOG
HOLLAND        CLOUDY    39  38  96 CALM      29.68R
GRAND RAPIDS   FOG       42  40  92 N3        29.67R VSB 1/2
IONIA          FOG       39  39  99 CALM      29.67R VSB 1/4
KALAMAZOO      CLOUDY    42  40  92 N7        29.65S FOG
LUDINGTON      FOG       34  34 100 CALM      29.69R VSB<1/4
MARSHALL       CLOUDY    41  41  99 CALM      29.64S FOG
MOUNT PLEASANT FOG       38  37  99 CALM      29.68R VSB 1/2
MUSKEGON       CLOUDY    42  40  92 NE3       29.69R
SOUTH HAVEN    CLOUDY    41  41  99 N5        29.67S FOG
$$
MIZ016>042-230500-
NORTHERN LOWER MICHIGAN

CITY           SKY/WX    TMP DP  RH WIND       PRES   REMARKS
ALPENA         FOG       37  36  96 CALM      29.70R VSB 1/2
BEAVER ISLAND  CLOUDY    35  35 100 E6        29.70R WCI  30
BELLAIRE       FOG       34  34  99 CALM      29.69R VSB 1
CADILLAC       CLOUDY    38  36  91 CALM      29.66R FOG
CHARLEVOIX     CLOUDY    36  36 100 CALM      29.71R FOG
FRANKFORT      FOG      N/A N/A N/A CALM      29.68R VSB 1
GAYLORD        FOG       39  36  89 CALM      29.67R VSB 1/4
GRAYLING       FOG       37  36  96 CALM      29.68R VSB 1/4
HARBOR SPRINGS CLOUDY    36  36 100 NE3       29.69R FOG
HOUGHTON LAKE  FOG       38  37  97 E3        29.67R VSB 1/4
MANISTEE       FOG       38  37  97 CALM      29.69R VSB 1/2
OSCODA         LGT SNOW  38  37  97 NE3       29.68S
PELLSTON       FOG       35  34  96 CALM      29.70R VSB 1/4
ROGERS CITY    FOG       37  36  96 E5        29.71R VSB 1/2 WCI  33
TRAVERSE CITY  CLOUDY    38  37  97 CALM      29.68R FOG
$$
MIZ007>008-015-230500-
EASTERN UPPER MICHIGAN

CITY           SKY/WX    TMP DP  RH WIND       PRES   REMARKS
KINROSS        CLOUDY    36  36 100 E8        29.71R FOG     WCI  30
MACKINAC ISLAN FOG       35  35 100 E7        29.70S VSB 1/4 WCI  29
NEWBERRY       CLOUDY    34  33  96 E3        29.69R
S. S. MARIE    FOG       37  36  96 CALM      29.71R VSB 1/2
MUNISING         N/A     34  34 100 CALM      29.69R
$$
MIZ004>006-011>014-085-230500-
CENTRAL UPPER MICHIGAN

CITY           SKY/WX    TMP DP  RH WIND       PRES   REMARKS
MANISTIQUE     CLOUDY    35  34  97 E3        29.69R FOG
ESCANABA       FOG       34  34 100 CALM      29.69R VSB 3/4
SAWYER-GWINN   FOG       33  33  99 CALM      29.67S VSB 1/4
$$
MIZ001>003-009>011-084-230500-
WESTERN UPPER MICHIGAN

CITY           SKY/WX    TMP DP  RH WIND       PRES   REMARKS
IRON MOUNTAIN  CLOUDY    36  33  89 NW5       29.66S WCI  32
HOUGHTON       LGT RAIN  35  32  88 NW13      29.66S VSB 1/2 WCI  26
COPPER HARBOR    N/A     35  35 100 CALM      29.67R
IRONWOOD       CLOUDY    33  32  96 W5        29.71S FOG     WCI  29
$$

ABBREVIATIONS USED IN REMARKS
   TC - TEMPERATURE IN CELSIUS
  WCI - WIND CHILL INDEX
   HX - HEAT INDEX
  VSB - VISIBILITY





USA.gov is the U.S. government's official web portal to all federal, state and local government web resources and services.